sat.trackr.live / text

‹ back to catalog

STARLINK-5779

NORAD 56028 · 2023-042AU

PAYLOAD ACTIVE UNKNOWN

§ Identity

Operator
Country
US
Launch date
2023-03-24
Launch site
AFETR
Launch vehicle
Mass (kg)
RCS (m²)

Purposes: comms

External: N2YO · Heavens-Above · Gunter

§ Orbital elements

Epoch: 2026-09-20T07:49:29.208000Z

Period
94.27 min
Inclination
43.0060°
Eccentricity
0.0001709
Mean motion
15.27574396 rev/d
Perigee alt
481.9 km
Apogee alt
484.2 km
Semi-major
6,861.2 km
B*
-2.3109e-5
RAAN
25.9290°
Arg perigee
281.1447°
Mean anomaly
78.9212°
Rev number
19,280

§ Raw data

STARLINK-57791 56028U 23042AU  26263.32603250 -.00000898  00000+0 -23109-4 0  99972 56028  43.0060  25.9290 0001709 281.1447  78.9212 15.27574396192805

JSON: /api/v1/satellites/56028 · /tle

For live sub-satellite position, see the globe view (requires WebGL).

§ Visibility from observer

Set your observer location to see the next 7 days of passes ≥ 10°. The values pass through the URL so the page stays shareable.

No JS? Fill the form by hand. The geolocation button needs JavaScript.